This is the latest recevied weather packets stored in our database for station/object K4OAM-13. If no packets are shown the sender has not sent any weather packets the latest 10 day(s).
| Time | Temp. | Humidity | Pressure | Rain* | Wind** | Luminosity | Snow |
|---|---|---|---|---|---|---|---|
| 1777945558 | 8.89° C | 72% | 1009.5 hPa | - | - | - | - |
| 1777944957 | 8.89° C | 72% | 1009.6 hPa | - | - | - | - |
| 1777944357 | 8.89° C | 71% | 1009.5 hPa | - | - | - | - |
| 1777943757 | 8.89° C | 71% | 1009.5 hPa | - | - | - | - |
| 1777943161 | 8.89° C | 70% | 1009.1 hPa | - | - | - | - |
| 1777942558 | 8.33° C | 71% | 1009.2 hPa | - | - | - | - |
| 1777941957 | 8.33° C | 70% | 1009.1 hPa | - | - | - | - |
| 1777941357 | 8.33° C | 70% | 1009 hPa | - | - | - | - |
| 1777940757 | 8.33° C | 71% | 1009.1 hPa | - | - | - | - |
| 1777940157 | 8.33° C | 71% | 1009.1 hPa | - | - | - | - |
| 1777939557 | 8.89° C | 70% | 1009.2 hPa | - | - | - | - |
| 1777938957 | 8.33° C | 70% | 1009.2 hPa | - | - | - | - |
| 1777937757 | 8.33° C | 75% | 1009 hPa | - | - | - | - |
| 1777937160 | 8.33° C | 77% | 1009 hPa | - | - | - | - |
| 1777936558 | 8.33° C | 79% | 1008.8 hPa | - | - | - | - |
| 1777935957 | 8.33° C | 84% | 1008.6 hPa | - | - | - | - |
| 1777935357 | 8.33° C | 81% | 1008.1 hPa | - | - | - | - |
| 1777934757 | 8.33° C | 81% | 1007.9 hPa | - | - | - | - |
| 1777934157 | 8.89° C | 81% | 1007.7 hPa | - | - | - | - |
| 1777933557 | 8.33° C | 84% | 1007.6 hPa | - | - | - | - |
| 1777932957 | 8.33° C | 85% | 1007.5 hPa | - | - | - | - |
| 1777932357 | 8.33° C | 91% | 1007.3 hPa | - | - | - | - |
| 1777931757 | 8.33° C | 95% | 1007.4 hPa | - | - | - | - |
| 1777931157 | 8.33° C | 92% | 1006.9 hPa | - | - | - | - |
| 1777930558 | 8.33° C | 88% | 1007 hPa | - | - | - | - |
* Rain since midnight (hover to see other rain measurements)
** Current wind speed in m/s (hover to see current wind gust speed)